Tracking 22438 objects as of 25-Feb-2021
HD Live streaming from Space Station
objects crossing your sky now

STARLINK-1933

Track STARLINK-1933 now!
10-day predictions
STARLINK-1933 is classified as:


NORAD ID: 46791
Int'l Code: 2020-074BE
Perigee: 552.5 km
Apogee: 556.2 km
Inclination: 53.1 °
Period: 95.6 minutes
Semi major axis: 6925 km
RCS: Unknown
Launch date: October 24, 2020
Source: United States (US)
Launch site: AIR FORCE EASTERN TEST RANGE (AFETR)
aabbcc
Your satellite tracking list
Your tracking list is empty




NASA's NSSDC Master Catalog

Two Line Element Set (TLE):
1 46791U 20074BE  21055.91668981 -.00019247  00000-0 -12765-2 0  9999
2 46791  53.0560 296.1801 0002637  83.0656 262.8189 15.06402163  1859
Source of the keplerian elements: AFSPC